Flag for U.S.A. Weather past 2 weeks in Mobile, Alabama, U.S.A.

Now
79 °F

Clear.


Feels Like: 82 °F
Forecast: 72 / 89 °F
Wind: 10 mph from Northwest

Location: Mobile Downtown Airport

Current Time: Jul 29, 2014 at 2:13:17 AM

Latest Report: Jul 29, 2014 at 12:53 AM


Visibility: 10 mi

Pressure: 29.99 "Hg

Humidity: 82%

Dew point: 73 °F

Location of MobileLocation

Historic Weather in Mobile — Graph

°F

Mobile temperature yesterday

Maximum temperature yesterday: 95 °F (at 2:53 PM)
Minimum temperature yesterday: 79 °F (at 5:53 AM)
Average temperature yesterday: 86 °F

Past Weeks' High & Low Weather Summary

 TemperatureHumidityPressure
High95 °F (Jul 28, 2:53 PM)100% (Jul 14, 4:53 AM)30.11 "Hg (Jul 14, 4:53 AM)
Low64 °F (Jul 17, 5:53 AM)42% (Jul 16, 3:53 PM)29.90 "Hg (Jul 15, 5:53 PM)
Average80 °F83%30.01 "Hg
* Reported Jul 14 12:53 AM — Jul 29 12:53 AM, Mobile, Weather by CustomWeather, © 2014

Note: Actual official high and low records may vary slightly from our data, if they occured in-between our weather recording intervals... More about our weather records

Advertising

Mobile weather history for previous 24 hours

 ConditionsComfort  
Time TempWeatherWind HumidityBarometerVisibility
12:53 AM
Jul 29
79 °FClear.10 mph82%29.99 "Hg10 mi
11:53 PM
Jul 28
80 °FPassing clouds.9 mph90%30.00 "Hg10 mi
10:53 PM81 °FPassing clouds.5 mph88%30.00 "Hg10 mi
9:53 PM81 °FPassing clouds.No wind82%30.00 "Hg10 mi
8:53 PM81 °FPassing clouds.No wind82%29.98 "Hg10 mi
7:53 PM86 °FThunderstorms. Scattered clouds.12 mph67%29.96 "Hg10 mi
6:53 PM91 °FPassing clouds.No wind64%29.95 "Hg10 mi
5:53 PM90 °FPassing clouds.3 mph63%29.95 "Hg10 mi
4:53 PM93 °FScattered clouds.10 mph54%29.96 "Hg10 mi
3:53 PM95 °FScattered clouds.8 mph54%29.96 "Hg10 mi
2:53 PM95 °FScattered clouds.9 mph51%29.98 "Hg10 mi
1:53 PM94 °FScattered clouds.9 mph56%30.00 "Hg10 mi
12:53 PM94 °FScattered clouds.7 mph56%30.02 "Hg10 mi
11:53 AM92 °FScattered clouds.10 mph60%30.04 "Hg10 mi
10:53 AM90 °FScattered clouds.12 mph66%30.05 "Hg10 mi
9:53 AM88 °FSunny.9 mph70%30.06 "Hg10 mi
8:53 AM86 °FSunny.8 mph72%30.06 "Hg10 mi
7:53 AM82 °FSunny.8 mph82%30.06 "Hg10 mi
6:53 AM80 °FClear.8 mph90%30.06 "Hg10 mi
5:53 AM79 °FClear.8 mph94%30.04 "Hg10 mi
4:53 AM80 °FClear.6 mph90%30.03 "Hg10 mi
3:53 AM80 °FClear.7 mph90%30.01 "Hg10 mi
2:53 AM81 °FClear.7 mph91%30.00 "Hg10 mi
Weather by CustomWeather, © 2014

See weather overviewHow to use our weather pages